Regional Weather Roundup
Issued by NWS

Home | Current Version | Previous Version | Graphics & Text | Print | Product List | Glossary On
Versions: 1 2 3 4 5 6 7 8 9 10 11 12 13 14 15 16 17 18 19 20 21 22 23 24 25 26 27 28 29 30 31 32 33 34 35 36 37 38 39 40 41 42 43 44 45 46 47 48 49 50
000
ASUS45 KTFX 311604
RWRMT
MONTANA HOURLY WEATHER ROUNDUP
NATIONAL WEATHER SERVICE GREAT FALLS MT
904 AM MST SAT JAN 31 2015

NOTE: "FAIR" INDICATES FEW OR NO CLOUDS BELOW 12000 FEET WITH NO
SIGNIFICANT WEATHER AND/OR OBSTRUCTIONS TO VISIBILITY.

* THESE STATIONS ARE NOT UNDER NWS QUALITY CONTROL. THEY DO NOT
   REPORT WEATHER SUCH AS PRECIPITATION OR FOG.

MTZ001>007-043-311700-
WEST OF THE DIVIDE
CITY           SKY/WX    TMP DP  RH WIND       PRES   REMARKS
KALISPELL      FOG       25  25 100 CALM      30.15R VSB 1/2
MISSOULA       FOG       21  19  92 SW3       30.14S
BUTTE          CLOUDY    19  16  88 CALM      30.04S
MULLAN PASS    FOG       21  18  88 VRB7      30.06S VSB 1 3/4 WCI  12
* ANACONDA     PTCLDY    21  16  81 N/A        N/A
* ESSEX        N/A       25  20  81 NE10G18    N/A   WCI  15
* LINCOLN      N/A       12   9  88 N2         N/A
* LOOKOUT PASS N/A       23  22  96 N4         N/A
* POLSON       N/A       22  21  96 N1         N/A
* RONAN APT    PTCLDY    21  19  92 N/A        N/A
* SEELEY LAKE  N/A        7   3  83 SE1        N/A
* THOMP F APT  SUNNY     16   8  71 NE2        N/A
$$

MTZ008-052>055-311700-
SOUTHWEST MONTANA
CITY           SKY/WX    TMP DP  RH WIND       PRES   REMARKS
BOZEMAN        CLOUDY    25  19  78 NE5       30.03F WCI  19
DILLON         PTCLDY    21  12  68 S7        30.03F WCI  12
* W YELLOWSTON CLOUDY    -1  -6  79 SW1        N/A
* THREE FORKS  PTCLDY    25   7  46 N/A        N/A
* BOULDER HILL N/A       27  10  49 SW8        N/A   WCI  19
* MONIDA PASS  N/A       10   6  84 W6         N/A
* RAYNOLDS PAS N/A       12   0  58 S7         N/A   WCI   1
* WHITEHALL    N/A       20  15  81 NE2        N/A
* WISE RIVER   N/A       10   5  80 NW3        N/A
$$

MTZ009>010-012-014-046-048-049-054-311700-
EAST SLOPES AND CENTRAL MONTANA
CITY           SKY/WX    TMP DP  RH WIND       PRES   REMARKS
CUT BANK       LGT SNOW  12   9  88 N25G32    30.21R VSB 3    WCI  -8
GREAT FALLS    SNOW      21  19  92 N16       30.14R VSB M1/4 WCI   7
HELENA         SUNNY     28  23  81 W6        30.07R WCI  21
MALMSTROM AFB  LGT SNOW  23  21  92 NW17G23   30.16R VSB 1 3/4 WCI   9
* DEARBORN     N/A       29  23  78 N7         N/A   WCI  22
* EAST GLACIER N/A       13   8  80 NE7        N/A   WCI   3
* MONARCH      N/A       21  19  92 NW13       N/A   WCI   8
* PENDROY      N/A       16  14  92 VRB24G36    N/A   WCI  -2
* ROGERS PASS  N/A       21  20  96 SE4        N/A
* SWEET GRASS  N/A       11  11 100 N17G23     N/A   WCI  -6
$$

MTZ011-013-016-021-035-040-045-047-050-051-311700-
NORTH CENTRAL MONTANA
CITY           SKY/WX    TMP DP  RH WIND       PRES   REMARKS
HAVRE          SNOW      16  12  84 NE21      30.19R VSB 1/2  WCI  -1
LEWISTOWN      CLOUDY    27  25  92 W12       30.04R WCI  16
* N BAR RANCH  PTSUNNY   28  23  81 NW16      29.99R WCI  16
* CHESTER      N/A       18  15  88 NE14G21    N/A   WCI   4
* DENTON       N/A       27  25  92 NW16G22    N/A   WCI  15
* GEYSER       N/A       23  23 100 W17G22     N/A   WCI   9
* JUDITH GAP   N/A       23  23 100 VRB24G29    N/A   WCI   7
* LOMA         N/A       25  22  88 NW14G19    N/A   WCI  13
$$

MTZ017>020-022>027-061-062-311700-
NORTHEAST MONTANA
CITY           SKY/WX    TMP DP  RH WIND       PRES   REMARKS
GLASGOW        SNOW      19  16  88 E21       30.13S VSB M1/4 WCI   3
GLENDIVE       CLOUDY    21  19  92 E17       30.09S WCI   7
JORDAN         CLOUDY    25  21  85 NE17      30.04S WCI  12
SIDNEY         CLOUDY    19  16  88 NE16G22   30.20R WCI   4
WOLF POINT     LGT SNOW  19  16  88 NE28G33   30.17R VSB 1 1/4
* BEAVER HILL  N/A       20  19  96 E15G20     N/A   WCI   6
* CIRCLE       N/A       23  22  96 NE16G21    N/A   WCI  10
* LINDSAY DVD  N/A       20  19  96 E17G23     N/A   WCI   5
* NAVAJO       N/A        9   6  87 E14G19     N/A   WCI  -7
* SACO         N/A       20  17  88 NE19G25    N/A   WCI   5
$$

MTZ028>042-056>058-311700-
SOUTHCENTRAL AND SOUTHEAST MONTANA
CITY           SKY/WX    TMP DP  RH WIND       PRES   REMARKS
BAKER          FOG       21  21 100 E20G29    30.03S VSB 1/2  WCI   6
BILLINGS       CLOUDY    30  19  64 SW14      29.96R WCI  19
LIVINGSTON     PTSUNNY   30  14  51 W14       29.96F WCI  19
MILES CITY     PTCLDY    27  23  85 NE14      29.98R WCI  16
* LAUREL APT   CLOUDY    27  10  49 N/A        N/A
* ROUNDUP APT  CLOUDY    27  19  72 N10G17     N/A   WCI  18
* ALZADA       N/A       24  24 100 E12        N/A   WCI  13
* HYSHAM       N/A       28  22  78 W4         N/A
* LAME DEER    N/A       32  19  59 NW4        N/A
* REED POINT   N/A       22  20  92 E4         N/A
$$

REGIONAL REPORTS...DAKOTAS
CITY           SKY/WX    TMP DP  RH WIND       PRES   REMARKS
WILLISTON      CLOUDY    12   7  80 E20       30.26R WCI  -6
DICKINSON      FOG       19  18  96 E16G24    30.11S VSB 3/4  WCI   4
BISMARCK       LGT SNOW  12   9  88 E16       30.28R WCI  -5
GRAND FORKS    CLOUDY     3  -6  66 N17G25    30.45R WCI -17
FARGO          SUNNY     10   0  64 N21       30.36R WCI  -9
BUFFALO SD     PTSUNNY   23  21  92 E20       29.96S WCI   8
RAPID CITY     CLOUDY    28  25  89 E8        30.02R WCI  20
$$

REGIONAL REPORTS...WYOMING/IDAHO/WASHINGTON
CITY           SKY/WX    TMP DP  RH WIND       PRES   REMARKS
GILLETTE       PTCLDY    34  25  70 S14       29.90S WCI  24
SHERIDAN       PTCLDY    27  19  72 S5        29.94R WCI  21
CODY           PTCLDY    27  19  72 S3        29.93F
YELLOWSTONE LA PTSUNNY   -2  -8  75 CALM      30.03S
SALMON         CLOUDY    25  19  78 N3        30.21S
MULLAN PASS    FOG       21  18  88 VRB7      30.06S VSB 1 3/4 WCI  12
SAND POINT     CLOUDY    32  28  85 SW12      30.24R WCI  23
SPOKANE        CLOUDY    30  27  89 SW6       30.25S WCI  24
$$

REGIONAL REPORTS...ALBERTA
CITY           SKY/WX    TMP DP  RH WIND       PRES   REMARKS
CALGARY        LGT SNOW   7   1  76 NE8       30.35F WCI  -6
EDMONTON       LGT SNOW   1  -4  79 N3        30.49S
$$

REGIONAL REPORTS...SASKATCHEWAN
CITY           SKY/WX    TMP DP  RH WIND       PRES   REMARKS
SWIFT CURRENT  LGT SNOW   1  -2  87 NE17      30.31R WCI -19

$$



USA.gov is the U.S. government's official web portal to all federal, state and local government web resources and services.